Weather in Lypova Dolyna

Ukraine / Sumi District     50°33′47″N   33°47′28″E
temp.,
°C
wind,
m/s
gust,
m/s
humid.,
%
clouds,
%
prec.,
mm/h
press.,
hPa
HPBL,
m
7 march, sun
sun723:00−9wnw34910 0.0 102471
02:00−9w45890 0.0 102389
05:00−9sw512830 0.0 1021206
08:00−6sw7148316 0.0 1019412
11:00−2wsw91584100 0.0 1016784
14:000wsw101783100 0.0 10131310
17:000wsw91684100 0.1 10111169
20:00−1wsw7178395 0.1 1010722
8 march, mon
mon823:00−1wsw7148998 0.0 1009698
02:00−2wsw7149397 0.1 1008631
05:00−2w71394100 0.3 1007718
08:00−2w61189100 0.6 1009912
11:00−2wnw7107978 0.1 10101065
14:00−2wnw7107985 0.1 10111173
17:00−4wnw498274 0.3 1012286
20:00−7wnw358637 0.3 101491
9 march, tue
tue923:00−8wnw33870 0.0 101540
02:00−9w338722 0.0 101642
05:00−9wnw338970 0.0 101660
08:00−8nw359375 0.0 1017171
11:00−5nnw358560 0.0 1019632
14:00−4nnw458180 0.1 1020888
17:00−7nnw358899 0.1 1020160
20:00−9n239091 0.1 102341
10 march, wed
wed1023:00−10nnw229097 0.0 102432
02:00−11n239086 0.0 102537
05:00−11n2290100 0.0 102530
08:00−10nne1186100 0.0 102685
11:00−7nnw117388 0.0 1026353
14:00−5wnw126752 0.0 1025522
17:00−7w12810 0.0 102528
20:00−9wsw22830 0.0 102623
11 march, thu
thu1123:00−9sw238210 0.0 102630
02:00−9sw337922 0.0 102648
05:00−9sw348083 0.0 102557
08:00−7sw378170 0.0 1026218
11:00−2ssw587021 0.0 1025695
14:00−1ssw586558 0.0 10231059
17:00−2s51067100 0.0 1021278
20:00−2s61466100 0.0 1020397